Regional Weather Roundup
Issued by NWS Cleveland, OH

Home | Current Version | Previous Version | Graphics & Text | Print | Product List | Glossary On
Versions: 1 2 3 4 5 6 7 8 9 10 11 12 13 14 15 16 17 18 19 20 21 22 23 24 25 26 27 28 29 30 31 32 33 34 35 36 37 38 39 40 41 42 43 44 45 46 47 48 49 50
000
ASUS41 KCLE 301200
RWRCLE
OHIO REGIONAL WEATHER ROUNDUP
NATIONAL WEATHER SERVICE WILMINGTON, OH
800 AM EDT TUE JUN 30 2015

NOTE: "FAIR" INDICATES FEW OR NO CLOUDS BELOW 12,000 FEET WITH NO
SIGNIFICANT WEATHER AND/OR OBSTRUCTIONS TO VISIBILITY.

OHZ001>008-015>018-024>027-034-035-043-044-301300-
   NORTHWEST OHIO

CITY           SKY/WX    TMP DP  RH WIND       PRES   REMARKS
DEFIANCE       LGT RAIN  63  61  93 CALM      29.83R FOG
FINDLAY        CLOUDY    63  61  93 S5        29.82S FOG
TOLEDO EXPRESS PTSUNNY   62  60  93 SW5       29.82R
TOLEDO EXEC    PTSUNNY   64  60  87 W3        29.82S
LIMA           CLOUDY    63  62  97 S3        29.84R FOG
$$

OHZ009>014-019>023-028>033-038-089-301300-
   NORTHEAST OHIO

CITY           SKY/WX    TMP DP  RH WIND       PRES   REMARKS
CLE-HOPKINS    CLOUDY    64  60  87 SW6       29.84R
CLE-LAKEFRONT  CLOUDY    65  61  87 SW12      29.81R
CUY CO. ARPT   CLOUDY    66  63  88 SW9       29.83R
LORAIN-ELYRIA  CLOUDY    63  60  90 SW8       29.84R
ASHTABULA      CLOUDY    63  61  93 SW8       29.83R
AKRON-CANTON   PTSUNNY   64  60  87 SW10      29.85R FOG
WOOSTER        MOSUNNY   63  60  90 SW5       29.85R
MANSFIELD      SUNNY     62  61  96 S8        29.85R
YOUNGSTOWN     CLOUDY    63  62  97 S6        29.84S FOG
$$

OHZ042-051>053-060>062-070>072-077>081-301300-
  SOUTHWEST OHIO

CITY           SKY/WX    TMP DP  RH WIND       PRES   REMARKS
CINC-COVINGTON MOSUNNY   66  64  93 S9        29.88R
CINC-LUNKEN    SUNNY     67  65  93 S5        29.88R
HAMILTON       SUNNY     67  66  97 VRB5      29.88R
DAYTON         NOT AVBL
WRIGHT-PAT AFB NOT AVBL
DAYTON GENERAL CLOUDY    65  65 100 S7        29.86R FOG
WILMINGTON     CLOUDY    66  63  90 SW9       29.87R FOG
$$

OHZ036-037-039>041-045>050-054>059-063>069-073>076-082>088-301300-
  CENTRAL AND SOUTHEAST OHIO

CITY           SKY/WX    TMP DP  RH WIND       PRES   REMARKS
COLUMBUS       FOG       65  65 100 S5        29.85R VSB 1/4
OSU AIRPORT    CLOUDY    65  64  97 SW5       29.86R FOG
BOLTON FIELD   CLOUDY    64  64 100 SW10      29.87R FOG
RICKENBACK AFB NOT AVBL
NEWARK         CLOUDY    66  65  96 SW5       29.86R FOG
MARION         CLOUDY    62  61  96 S6        29.86R FOG
LANCASTER      CLOUDY    68  64  87 SW7       29.87R FOG
ZANESVILLE     CLOUDY    66  63  90 S6        29.87R FOG
NEW PHILLY     CLOUDY    65  63  93 CALM      29.87R
$$



USA.gov is the U.S. government's official web portal to all federal, state and local government web resources and services.